Torna al catalogo

SCOUT G-1 DEB

AttivoPO
NORAD 18530·DEBRIS·🇺🇸 United States

Lanciato Sep 16, 1987 da Vandenberg Space Force Base

Loading…

Prossimi Passaggi (prossime 24 ore)

TLE

AggiornatoSource: Space-Track

Epoca: Sep 14, 2026, 05:23 UTC

1 18530U 87080F   26257.22446572  .00000156  00000-0  20405-3 0  9990
2 18530  90.3206 176.6586 0086479  88.9490  64.9269 13.56291261927448

Traccia SCOUT G-1 DEB in tempo reale con AllMySat

Download on the App Store